Wind_Speed
12 15 17 17 16 17 20 20 18 19 20 21 22 24 26 26 26 26 25 24 25 25 24 24 24 24 24 24 25 25 25 25 25 25 25 24 24 23 23 23 22 22 21 21 20 20 19 17 15 13 11 10 9 8 9 10 10 9 8 8 12 13 6 5 7 7 6 6 6 8 9 10 10 10 10 10 10 9 9 8 8 8 8 7 7
19 20 21 21 20 19 20 20 19 20 22 23 24 26 27 28 28 29 28 27 28 28 27 26 26 26 26 26 26 27 27 27 27 27 26 26 25 24 23 22 22 22 22 22 22 21 22 21 19 16 11 8 7 6 8 10 10 10 10 11 13 14 11 4 5 7 6 5 4 5 7 9 9 9 9 9 10 9 8 8 8 9 9 9 8
22 23 23 24 23 21 19 21 21 22 23 24 26 28 29 30 30 30 30 30 30 30 30 29 29 29 28 28 28 29 30 30 29 29 28 28 27 25 23 23 23 22 23 23 23 23 23 23 21 19 13 8 6 7 10 10 8 10 12 13 13 12 12 8 3 5 6 6 5 4 5 6 7 6 7 8 9 9 9 9 9 9 9 9 9
24 24 25 26 26 25 23 23 24 25 25 26 27 29 31 32 33 33 33 32 31 31 32 32 31 31 31 31 31 32 32 32 32 31 31 30 29 27 26 25 24 24 24 23 24 24 25 24 22 21 17 11 7 9 14 12 10 12 13 13 13 12 11 8 5 4 6 7 7 8 8 9 9 7 6 6 6 7 9 10 10 10 11 11 11
25 26 27 28 29 29 28 27 27 27 27 28 29 31 32 34 35 36 36 35 35 34 34 33 33 33 33 33 34 34 34 34 33 33 32 31 30 29 28 27 26 25 25 25 25 25 26 25 23 24 23 19 13 13 15 14 14 16 15 14 14 12 11 9 7 6 6 8 9 10 12 12 13 12 11 11 11 10 10 9 10 10 12 13 13
25 26 28 29 29 29 29 28 29 28 28 29 30 31 32 34 36 37 38 38 38 37 36 35 35 34 34 35 35 35 34 33 33 33 32 31 31 30 29 28 28 27 27 27 27 27 27 25 25 25 25 24 21 19 17 16 16 17 17 17 16 14 11 9 9 10 9 10 11 12 13 14 14 14 15 15 15 15 14 13 12 11 12 12 13
25 25 26 25 25 28 28 27 28 28 28 28 29 29 31 33 34 36 37 38 38 38 37 36 35 34 34 34 34 33 32 32 32 32 32 32 32 31 31 31 32 33 33 34 34 33 31 30 30 30 29 27 26 25 24 23 22 21 21 20 19 18 15 13 12 12 13 13 12 12 14 15 15 16 16 17 17 17 18 17 17 16 15 15 14
24 25 25 25 24 25 26 25 26 26 25 26 26 27 28 30 31 33 35 36 36 36 35 34 34 33 33 32 32 31 31 32 33 33 32 32 33 33 34 34 37 41 43 45 45 42 40 39 41 43 41 39 37 35 32 29 27 25 24 23 22 20 19 17 16 16 16 16 15 13 12 13 14 15 16 17 18 19 20 20 20 20 19 19 18
23 23 24 25 25 25 25 24 26 26 25 24 23 23 24 27 28 30 32 33 33 33 33 32 32 32 32 32 31 31 31 33 35 35 35 35 36 36 37 38 39 42 46 49 50 50 48 47 48 50 51 50 49 46 44 41 37 34 31 28 26 24 22 21 19 18 17 17 17 16 15 14 14 15 15 16 17 19 21 22 22 22 23 22 22
21 22 22 23 24 24 24 24 25 25 26 25 24 23 24 25 27 28 30 31 32 31 31 30 30 30 30 30 31 31 32 33 35 37 38 38 38 39 40 41 41 42 44 47 49 50 50 49 49 49 51 52 53 52 51 50 48 46 42 39 35 32 28 25 22 21 20 19 18 17 17 16 16 17 18 18 17 18 19 22 24 25 26 25 24
20 20 21 21 22 23 22 22 23 23 24 24 23 23 24 25 26 28 30 31 32 31 29 27 27 28 28 28 29 30 31 32 33 35 37 38 39 39 41 42 42 43 43 45 46 48 48 48 48 48 48 49 50 51 52 52 52 51 50 48 46 43 40 36 31 27 24 22 21 20 19 18 18 18 18 20 20 20 20 21 23 25 27 28 25
19 19 19 19 20 19 18 20 22 22 22 22 20 20 22 24 25 27 28 31 32 32 30 26 24 25 25 26 26 27 28 30 31 32 33 34 35 36 38 39 40 41 41 42 43 44 45 46 46 46 46 46 47 48 49 50 51 51 51 51 50 49 48 47 44 40 35 29 24 21 20 19 20 20 20 20 21 22 23 22 22 24 27 29 29
18 17 17 17 18 18 17 18 19 19 20 20 20 19 20 22 23 25 27 28 30 31 30 28 25 23 23 22 22 23 24 25 26 28 29 30 30 31 32 34 35 36 37 38 39 40 41 43 44 44 45 45 45 46 47 48 49 49 50 50 50 50 50 49 49 48 45 42 37 32 26 22 20 21 22 23 23 24 24 25 27 27 27 29 30
16 16 16 15 16 16 16 17 18 17 17 17 18 19 19 20 22 23 25 26 27 28 29 29 27 25 23 20 19 18 18 20 21 23 24 25 26 27 28 29 30 31 31 33 34 35 36 38 39 41 42 43 44 45 45 46 47 48 49 49 49 49 49 49 49 49 48 46 45 42 38 34 28 23 21 22 25 26 28 29 30 31 30 30 30
14 14 14 14 14 14 14 15 16 16 16 16 16 17 18 19 20 21 23 24 25 25 26 27 27 26 24 21 18 16 14 13 15 17 18 20 21 22 23 25 26 27 28 28 29 30 32 33 35 36 38 39 41 43 44 45 46 48 49 49 48 48 48 48 48 49 49 48 47 46 44 42 39 35 30 26 23 24 26 29 31 32 32 33 32
12 12 12 12 13 13 12 13 14 14 15 15 14 15 16 17 18 19 21 22 22 23 24 24 25 25 25 24 22 18 15 12 11 10 11 12 14 17 18 20 21 23 24 26 26 27 29 30 32 33 35 37 38 40 42 43 45 47 49 49 48 48 48 48 48 48 49 49 49 48 47 45 44 42 39 36 32 28 25 25 26 29 31 33 34
11 10 11 11 12 11 11 11 11 12 13 13 13 14 15 15 16 17 19 20 21 21 22 23 24 25 25 26 26 24 20 17 14 13 11 10 9 10 12 15 17 19 20 22 23 25 26 28 30 31 33 34 36 38 40 42 44 46 49 50 49 48 48 48 48 49 49 49 50 50 49 49 47 46 45 43 41 38 34 30 27 25 27 29 32
9 9 10 10 10 10 10 10 9 10 11 11 12 13 13 13 14 15 17 19 20 20 21 22 24 25 27 28 29 28 26 22 19 16 14 11 8 7 8 10 12 14 16 18 20 22 24 26 28 30 31 32 34 36 38 40 42 45 48 50 49 48 48 48 48 49 50 50 50 51 51 51 51 50 49 47 46 44 42 38 35 32 28 27 27
8 8 9 9 9 9 9 9 8 8 9 10 10 11 11 12 12 14 15 17 18 19 21 22 24 26 28 29 30 30 29 26 23 19 16 13 8 6 8 11 12 12 13 15 17 20 23 25 27 28 30 31 33 34 36 38 40 43 46 49 49 48 47 47 47 48 49 50 51 51 52 52 52 52 52 52 51 50 48 46 43 39 36 32 29
6 6 7 7 8 8 8 8 7 7 8 8 9 10 10 10 11 12 13 15 17 19 20 22 23 26 27 29 30 31 30 28 25 22 17 14 11 8 9 12 14 14 14 14 16 19 22 24 26 27 28 30 32 33 35 37 39 42 45 48 50 49 47 47 47 47 48 49 50 51 52 53 53 54 55 56 57 56 55 54 52 49 45 41 36
5 5 5 6 6 7 7 6 6 7 7 8 8 9 9 10 11 11 12 14 15 17 19 21 23 24 26 28 29 30 31 29 26 23 18 14 13 11 11 13 15 16 15 14 16 18 21 23 25 26 27 29 31 33 34 37 39 41 44 47 49 49 47 46 47 48 48 49 49 51 52 53 54 55 57 58 59 59 59 59 58 57 54 51 46
4 4 4 4 4 4 4 4 5 5 6 7 8 9 10 11 11 12 12 13 15 17 18 20 22 24 25 26 28 30 31 30 26 23 19 13 13 12 10 12 16 17 15 15 16 18 20 22 24 25 26 27 29 31 33 35 38 40 43 46 49 49 48 46 46 47 49 49 50 50 51 53 54 55 56 58 60 61 61 61 61 61 60 58 55
3 3 2 2 2 2 2 2 3 4 5 7 8 10 11 12 13 13 14 14 15 16 18 19 21 22 24 25 27 29 30 30 27 24 20 14 11 12 11 12 17 18 16 16 18 19 21 23 24 24 25 26 27 29 31 34 37 39 42 45 48 50 49 47 45 46 48 49 50 50 51 52 54 55 56 58 60 62 63 64 64 65 64 63 61
2 2 1 1 1 1 1 1 1 2 5 7 10 12 13 13 14 14 14 15 16 17 18 19 20 21 22 24 26 28 29 30 28 25 21 16 12 11 12 13 17 18 17 17 18 20 22 24 25 26 26 27 28 29 31 33 36 39 42 45 48 50 50 48 46 45 47 49 50 51 51 52 53 55 55 57 60 63 65 66 67 69 69 68 67
2 2 2 2 1 1 2 2 4 6 8 10 12 13 14 14 15 15 15 16 17 17 18 18 19 20 21 22 24 26 28 29 29 27 23 18 14 12 12 13 15 17 17 17 18 20 22 24 26 28 28 29 30 32 33 35 37 40 42 45 48 50 49 48 46 45 46 48 50 51 52 52 53 55 56 58 61 64 66 68 70 72 74 74 74
5 5 4 4 4 4 3 5 7 9 11 13 13 14 14 15 16 15 16 17 18 18 19 19 19 20 21 22 22 24 26 28 29 28 25 21 17 14 13 14 16 17 18 18 20 21 23 25 27 29 30 31 32 34 35 37 39 42 43 45 49 51 50 48 46 46 47 48 50 52 53 54 55 56 57 59 62 65 68 70 72 75 77 79 80
7 7 6 6 7 7 7 8 10 11 13 13 13 13 14 15 16 17 17 18 18 19 19 20 20 20 21 22 22 23 24 25 27 28 28 24 20 17 16 16 17 19 20 21 22 24 26 27 29 30 32 32 33 35 36 38 41 43 44 46 50 52 51 48 47 47 47 49 51 53 54 55 56 57 58 60 64 67 69 71 73 76 79 82 85
9 9 9 9 10 10 11 12 13 13 14 14 14 14 14 15 16 18 18 18 19 20 20 20 21 21 21 22 23 23 23 24 25 27 27 26 23 21 19 18 19 21 23 24 25 27 28 30 32 33 33 33 34 35 37 38 40 42 44 46 49 52 52 49 48 48 48 49 51 53 54 56 58 59 59 61 64 67 70 72 73 77 81 85 88
12 11 11 12 12 12 13 14 15 15 16 16 16 16 16 16 17 19 19 19 20 20 21 22 22 22 23 23 23 24 24 24 25 26 27 27 26 23 21 20 21 23 26 27 28 29 30 32 34 35 35 35 34 36 38 39 40 42 43 45 49 52 52 50 49 48 48 50 51 53 54 56 59 60 60 62 65 68 70 73 75 78 82 87 92
14 14 14 14 15 15 16 16 17 17 17 18 18 18 18 17 18 19 20 21 21 21 22 23 23 24 24 25 25 25 25 26 26 26 27 28 27 26 24 23 23 25 27 29 29 30 30 32 34 36 36 36 35 36 38 40 41 41 43 45 48 51 51 50 49 48 48 50 52 53 55 57 59 62 62 63 66 69 72 75 77 79 83 88 94
15 15 16 16 16 17 17 18 18 18 18 18 19 20 20 19 19 20 21 22 22 22 23 24 25 25 26 26 26 26 27 27 27 27 27 28 28 28 27 26 26 27 29 30 30 31 31 32 33 35 36 36 36 37 39 40 41 42 43 45 47 50 50 49 49 48 49 51 52 54 56 58 61 63 63 63 66 70 73 77 80 82 86 90 96
16 16 16 16 16 18 19 19 19 19 19 20 21 21 22 22 21 21 22 23 24 24 24 25 26 27 27 28 28 28 28 28 29 28 28 29 29 29 29 29 29 30 31 32 32 33 33 33 33 35 36 36 37 38 40 41 41 42 43 44 47 49 49 48 48 48 49 51 53 55 57 59 62 64 64 64 67 71 75 79 83 85 88 92 98
17 17 16 16 17 19 20 20 20 20 21 22 22 23 23 23 23 23 23 24 25 26 26 26 27 29 29 29 30 30 30 30 30 31 31 31 31 31 31 31 31 32 33 34 34 35 36 36 36 37 38 38 38 40 41 42 42 43 43 44 46 48 48 47 47 48 49 51 53 55 58 60 64 66 66 66 68 72 76 80 84 87 90 94 99
19 19 18 18 19 20 22 23 23 23 23 24 25 25 25 25 25 25 24 25 26 28 28 29 29 30 31 31 31 32 32 32 32 33 33 33 34 34 34 34 34 34 35 36 36 37 39 40 40 40 40 40 40 41 41 42 43 43 43 44 46 48 47 46 47 48 50 52 54 57 59 62 65 67 68 69 70 73 77 82 86 89 92 96 101
22 22 21 21 21 21 23 24 26 26 27 27 28 28 27 27 27 27 27 27 28 29 30 31 31 32 33 33 34 34 34 34 34 34 35 35 36 36 36 37 37 37 38 38 38 39 41 43 44 43 43 42 43 42 40 40 42 41 41 43 46 47 46 46 47 49 51 53 56 59 62 65 68 69 70 71 72 74 79 84 88 92 94 98 102
25 25 24 24 24 24 24 26 28 29 29 30 31 31 30 29 29 30 30 30 30 31 33 34 34 35 35 35 36 36 36 36 35 36 36 36 37 38 38 39 40 41 41 41 41 41 43 44 45 46 46 46 47 45 40 38 39 38 39 42 45 46 46 45 47 49 52 55 57 61 64 67 70 70 71 72 73 75 79 85 89 93 96 99 103
28 28 28 27 27 27 27 28 30 31 32 32 33 34 33 32 32 32 32 32 32 33 34 36 37 37 38 38 38 38 38 38 37 37 38 38 38 39 40 40 41 43 44 44 44 44 45 46 46 47 48 48 50 46 39 36 35 35 38 42 44 46 46 46 47 49 52 56 58 62 66 69 71 73 73 75 75 76 80 86 90 94 98 100 103
32 31 31 31 31 31 31 32 33 33 34 35 36 36 36 35 34 34 34 35 35 36 37 38 40 40 41 41 41 41 41 40 40 39 40 40 40 41 42 43 43 44 46 47 47 47 47 47 48 49 49 49 50 44 37 34 34 34 37 41 44 46 47 47 48 51 53 56 59 63 67 71 74 75 76 78 78 78 83 87 91 95 99 102 104
35 34 35 34 34 34 35 35 36 36 37 37 38 38 38 37 37 36 37 37 38 38 39 41 42 43 44 44 44 44 44 43 43 42 42 43 43 44 44 45 46 46 48 49 49 50 50 49 50 50 50 50 48 40 33 32 32 33 38 41 44 46 48 49 50 53 55 57 59 63 67 72 75 75 77 79 79 80 85 88 92 96 100 103 105
37 37 37 37 37 38 38 38 38 38 39 39 40 40 40 39 39 39 39 40 40 41 42 43 45 46 47 47 47 47 47 45 45 45 45 45 46 47 48 48 49 49 50 51 51 51 51 52 52 52 51 51 45 36 31 30 30 33 38 43 45 47 49 50 52 54 57 59 61 65 68 72 75 77 79 80 79 82 86 90 93 97 101 104 107
40 40 40 40 40 40 40 40 40 40 40 41 41 42 42 41 41 41 42 42 43 44 45 46 48 49 50 49 49 50 50 49 48 48 48 49 50 51 51 52 52 52 53 53 53 53 53 53 53 52 51 49 42 34 31 30 31 34 39 44 46 47 48 50 52 56 59 60 63 67 70 74 77 79 81 82 82 84 87 90 93 98 102 104 107
42 42 41 42 42 42 42 42 42 42 42 42 43 44 44 44 44 44 45 46 46 47 48 49 50 51 52 52 52 53 53 54 53 51 51 53 53 54 55 56 55 55 55 55 55 55 54 54 53 52 51 47 39 33 32 32 33 36 40 45 48 47 49 50 52 56 60 62 64 67 70 75 78 81 83 84 85 87 89 91 94 98 102 104 106
43 43 43 44 44 44 43 43 43 44 44 44 45 46 46 46 47 47 48 49 50 50 51 52 52 53 54 55 56 56 57 58 57 56 56 56 57 57 58 59 58 57 57 57 57 56 55 53 52 50 48 43 37 34 34 34 35 38 41 46 49 49 50 51 53 56 60 63 65 67 70 75 79 82 84 86 88 89 91 93 95 99 103 105 106
45 45 46 46 46 45 45 45 45 46 47 48 48 49 49 49 49 50 51 52 53 53 54 55 56 56 57 58 59 60 61 61 61 60 60 59 60 60 60 61 61 59 57 57 57 55 53 51 49 47 44 39 36 36 37 37 37 39 42 48 50 50 50 52 54 56 60 64 66 67 71 76 80 83 85 87 89 91 92 94 96 99 103 105 107
47 47 47 47 47 47 47 48 48 49 50 51 51 51 52 52 52 53 54 55 56 57 58 59 59 60 60 61 62 63 63 64 64 63 62 62 62 62 61 62 62 60 57 55 55 52 49 47 45 43 40 37 36 38 39 39 39 40 44 50 51 50 51 53 55 56 60 65 67 68 72 77 80 83 85 88 90 91 92 93 96 100 103 105 107
48 49 49 49 49 50 50 50 51 52 53 54 54 55 55 55 55 56 57 58 59 60 61 61 61 62 63 63 64 64 64 65 65 64 62 62 61 61 60 60 60 58 55 52 50 47 44 42 40 38 37 37 38 39 41 41 40 41 47 52 52 51 52 54 56 57 61 66 68 69 73 77 81 83 86 88 90 92 92 93 96 100 103 105 107
51 51 51 52 52 52 53 54 55 56 57 57 58 59 59 59 59 58 59 60 61 62 62 62 62 62 62 62 62 62 62 62 63 62 60 59 59 58 56 56 55 53 50 47 43 39 37 36 36 36 37 37 39 41 42 42 41 43 49 54 54 52 53 55 56 57 61 66 69 71 74 78 81 84 86 89 91 92 93 93 96 99 102 105 107
53 53 54 54 55 55 56 57 58 59 60 60 61 61 61 61 60 59 58 58 58 59 59 59 59 59 59 59 59 59 59 59 60 61 57 55 56 55 52 50 49 47 44 40 35 31 32 34 36 38 38 38 40 42 43 42 42 46 51 54 54 53 54 57 57 57 60 65 70 73 76 79 82 85 88 89 91 92 94 94 96 99 102 105 107
56 57 57 57 57 58 58 58 59 59 59 59 59 59 59 59 58 56 54 53 53 54 55 56 56 56 56 57 57 57 58 57 58 59 55 51 51 51 48 45 42 39 34 31 29 29 31 35 38 40 41 41 41 43 43 42 44 48 53 54 54 54 56 58 59 59 60 64 69 72 76 81 84 87 89 90 91 93 94 94 96 100 103 105 108
57 57 57 57 56 56 56 56 55 55 54 54 55 55 56 56 55 53 52 50 49 49 51 53 54 54 55 56 56 57 57 56 57 58 55 50 47 47 44 39 34 30 24 23 27 31 32 35 39 42 43 44 43 43 42 42 46 51 54 55 55 55 57 59 60 60 62 65 68 71 75 80 84 87 90 91 92 93 94 95 97 100 103 106 108
54 53 53 52 52 52 51 51 50 50 50 50 50 51 52 52 53 52 51 49 47 47 48 49 51 52 54 55 56 57 56 55 55 57 56 50 45 42 39 33 27 23 20 21 26 32 34 36 40 43 45 45 44 42 42 44 48 52 55 57 57 57 58 59 60 61 63 67 70 73 76 80 83 86 89 91 92 94 95 96 97 100 103 106 108
Wind_Direction
73 76 79 79 74 70 66 62 63 65 66 63 61 61 60 60 59 58 58 57 57 57 56 56 54 53 51 50 51 51 50 49 48 47 46 44 43 39 36 34 33 31 29 27 24 22 23 25 26 26 28 39 50 56 61 55 34 18 16 11 1 360 345 277 266 273 292 304 304 298 298 300 301 302 306 313 315 314 313 309 304 298 290 284 280
88 86 85 83 82 79 75 72 74 76 74 69 66 64 63 63 62 60 60 58 58 58 58 57 56 55 53 52 51 52 52 51 50 49 49 48 46 44 41 39 37 35 32 29 26 23 24 27 28 28 26 35 50 54 47 38 22 2 350 354 2 11 18 352 270 267 275 283 289 304 312 308 306 307 310 319 320 317 317 318 315 311 305 298 289
92 88 86 84 81 79 80 81 83 82 76 71 67 65 65 64 64 62 61 59 58 58 58 57 56 55 55 53 52 53 53 52 52 52 52 51 50 48 46 44 41 39 37 33 30 27 26 27 27 27 27 26 34 41 30 24 18 359 343 341 349 1 14 16 323 281 274 275 273 278 291 295 302 311 320 326 323 321 321 321 321 322 320 314 306
93 90 87 84 82 81 85 87 84 81 76 72 69 67 66 64 64 63 61 59 58 57 57 56 56 55 55 54 53 53 53 53 53 52 53 53 52 51 49 48 46 44 41 37 35 33 31 29 26 25 28 27 24 25 18 7 354 351 347 346 349 352 358 3 346 301 274 268 266 265 267 273 281 283 290 297 293 301 311 314 316 320 322 321 317
94 91 88 85 83 82 83 84 82 80 77 74 70 68 67 65 63 62 61 59 57 56 56 56 55 54 54 53 52 51 51 51 51 51 51 52 52 51 50 50 48 46 43 40 38 38 36 33 28 25 28 30 23 13 5 353 346 349 352 354 356 353 348 343 333 316 285 265 261 265 269 272 277 277 276 278 277 278 282 287 297 308 312 313 312
95 92 89 84 82 82 81 81 81 79 76 73 70 68 66 65 63 61 59 57 56 55 54 54 54 53 52 52 51 50 49 49 49 49 49 51 52 51 50 50 49 47 44 43 43 43 43 38 32 28 28 27 23 16 12 7 4 4 4 2 0 356 348 332 321 314 304 288 272 266 268 270 272 275 280 284 284 282 279 277 277 284 291 295 299
93 91 90 86 82 80 78 78 81 79 75 72 69 67 66 64 62 60 58 55 54 53 53 53 53 53 52 52 52 51 50 51 51 51 51 53 54 54 54 54 54 55 53 51 51 51 51 47 43 40 36 31 28 24 21 17 13 11 8 6 3 360 355 344 332 323 318 314 300 282 273 270 270 274 281 286 287 286 286 283 280 278 278 277 282
94 91 91 91 87 82 77 76 78 77 75 72 69 66 64 62 61 59 56 54 53 53 53 52 52 53 53 54 55 55 56 57 57 58 57 58 59 60 61 61 62 63 63 62 62 61 59 56 54 52 50 46 42 38 33 27 20 14 8 3 358 355 353 349 344 338 331 326 320 308 292 278 273 272 276 280 283 285 286 286 284 281 278 277 278
97 95 93 92 89 86 82 78 75 74 72 70 67 63 61 60 58 56 55 54 54 54 54 54 54 55 56 58 60 61 63 65 67 67 66 66 66 67 68 67 67 67 69 69 70 69 68 65 63 61 59 57 54 51 48 45 39 33 26 17 8 0 353 348 343 340 337 334 331 324 313 298 284 275 272 274 279 279 277 278 282 282 282 282 280
101 100 97 95 91 88 85 80 75 73 71 69 66 62 61 59 58 57 56 56 56 56 56 55 56 57 59 62 64 66 70 72 73 74 74 74 74 74 73 73 72 71 71 72 72 71 71 70 68 66 64 62 60 58 56 54 52 49 45 40 34 26 17 6 355 345 339 336 334 330 324 315 302 290 281 276 280 281 274 269 272 277 280 281 280
105 103 100 97 94 89 85 84 80 75 72 70 66 61 59 59 60 59 59 59 58 58 57 56 56 57 59 62 65 70 74 76 77 78 78 78 77 77 76 75 74 73 72 72 71 70 70 70 69 67 65 63 61 59 57 55 54 53 52 50 48 44 40 34 26 15 0 346 335 328 324 319 312 305 294 283 280 282 280 272 269 272 274 277 278
108 106 103 100 96 92 88 85 83 78 74 71 67 60 56 57 58 58 59 59 58 58 58 57 57 56 57 60 64 68 74 78 79 79 78 79 79 77 75 74 74 73 72 70 69 69 68 68 67 66 64 62 61 58 56 53 52 51 50 50 50 49 47 45 41 37 31 21 7 350 334 322 313 309 302 294 288 286 284 279 274 272 272 274 272
111 108 105 101 98 97 95 88 83 78 74 71 69 64 57 55 55 55 56 57 56 56 56 56 55 54 53 55 59 63 69 73 77 78 78 77 77 75 72 72 72 70 67 66 65 64 62 62 61 61 60 59 58 56 54 52 50 48 47 47 46 46 46 46 44 42 40 38 35 27 15 358 337 320 309 301 296 293 289 284 281 279 275 273 269
113 110 107 103 98 96 94 90 85 80 76 71 70 66 58 53 52 51 52 53 53 53 52 51 50 48 47 46 48 53 58 63 68 70 73 74 73 72 71 69 68 65 62 59 57 55 54 54 53 52 52 51 51 50 49 48 47 45 44 43 43 43 43 43 43 41 39 38 38 38 35 29 19 3 341 321 307 298 291 288 287 286 282 278 273
113 109 105 103 98 95 93 90 86 81 76 69 65 64 57 51 48 48 48 50 50 49 48 47 45 43 40 38 36 35 38 46 53 57 60 64 68 70 69 68 66 62 58 53 50 48 46 45 45 43 42 42 42 42 42 43 43 42 40 39 39 39 40 40 40 39 38 35 34 33 34 33 32 27 19 6 347 326 308 298 292 290 287 284 281
114 108 103 100 98 97 95 89 83 79 73 65 61 62 57 49 45 44 44 45 44 44 43 42 40 36 33 31 28 24 18 13 13 18 26 38 51 61 63 63 61 58 54 50 45 40 38 37 36 35 34 33 33 34 35 37 38 37 36 35 35 35 36 36 36 35 35 34 31 29 28 28 28 27 26 23 18 8 351 331 313 300 293 287 284
116 108 103 99 97 96 93 88 80 74 72 66 60 60 57 48 41 39 40 39 38 36 35 35 33 30 26 24 22 20 16 8 357 348 343 347 10 36 49 52 51 50 47 43 38 33 29 27 27 27 25 25 25 26 27 29 30 31 30 31 31 31 32 32 32 32 31 31 29 27 25 23 22 21 20 20 19 18 13 4 351 333 314 299 288
115 108 103 98 95 93 88 82 73 68 67 64 59 57 55 48 37 32 33 34 31 29 27 27 27 24 21 20 20 18 16 12 4 354 344 336 335 354 15 24 28 31 31 29 25 20 17 16 16 18 18 18 18 18 19 20 23 24 25 26 27 28 28 28 29 29 28 27 26 24 22 19 17 16 15 14 14 14 14 11 6 358 344 326 307
111 106 101 95 89 86 81 74 65 59 59 57 55 52 49 43 32 26 27 28 26 23 22 23 22 20 19 18 18 17 16 13 8 359 349 339 327 325 346 354 353 355 1 7 8 3 1 2 5 7 10 11 12 12 12 13 15 17 19 21 23 24 24 24 25 25 25 24 23 21 19 17 14 12 10 9 9 9 9 9 7 4 358 347 332
110 103 97 91 84 79 74 66 54 46 45 45 44 41 35 31 27 25 25 23 21 19 19 19 18 17 17 16 16 16 14 12 10 4 354 342 329 310 313 330 333 331 332 340 347 348 347 350 354 358 2 4 5 5 5 5 7 10 12 15 17 19 20 20 21 21 22 22 21 19 17 15 12 10 8 7 6 5 4 4 3 2 359 355 346
116 108 97 89 82 77 70 58 46 37 29 27 27 26 21 18 17 17 18 19 17 15 15 16 15 15 15 14 13 14 13 12 10 7 1 349 341 328 306 309 319 319 317 323 331 336 338 341 346 350 354 357 359 359 359 359 360 3 6 9 12 14 15 16 17 17 18 19 18 17 15 12 10 8 7 6 4 2 1 359 359 358 356 354 349
128 119 108 94 86 80 70 56 45 35 24 18 16 15 13 9 7 5 7 10 11 10 11 12 12 12 12 11 10 11 12 13 12 10 7 358 350 347 325 312 320 320 312 311 317 325 330 335 340 343 347 351 353 354 354 354 354 356 359 3 6 10 12 12 13 13 14 15 15 14 12 10 8 6 5 5 3 1 359 358 356 355 353 350 347
140 134 128 114 103 96 79 64 49 34 21 9 2 360 358 357 357 357 358 1 4 5 7 8 8 8 9 8 8 8 10 12 12 11 10 4 353 350 342 330 332 331 322 315 316 322 327 331 336 338 341 344 346 348 349 349 350 352 354 358 1 4 7 8 8 9 10 11 12 11 10 7 5 4 3 3 2 1 359 357 355 353 351 348 345
171 174 173 176 158 157 171 198 319 340 342 341 340 340 342 343 346 350 353 356 359 1 3 3 3 3 4 6 5 6 8 10 11 9 9 7 358 348 345 341 340 341 339 334 331 332 334 336 338 339 338 338 340 343 345 346 347 349 351 353 357 0 2 4 4 5 6 7 8 8 7 6 3 1 1 1 1 360 359 356 354 353 350 347 344
237 243 246 254 259 233 227 252 282 302 315 323 328 332 335 337 340 344 348 351 354 356 358 359 359 358 359 1 2 3 4 7 9 8 6 5 1 349 342 341 343 344 343 340 337 337 339 340 341 340 337 336 338 341 344 346 348 349 349 350 354 357 359 0 1 1 2 3 5 5 5 3 1 358 359 359 359 359 358 356 354 352 350 348 345
256 261 267 274 285 290 288 289 297 306 314 320 325 328 332 334 337 341 345 348 350 352 353 354 354 354 354 356 357 359 0 2 6 7 5 1 358 351 342 338 339 339 339 336 332 331 333 335 338 338 336 334 336 339 343 345 347 348 348 348 351 354 356 358 359 359 359 360 1 2 2 1 359 357 357 358 358 357 357 355 354 352 350 348 345
255 260 266 275 285 291 297 302 305 310 316 320 323 326 328 331 334 337 340 345 347 348 349 348 348 349 350 352 353 354 356 357 360 4 5 2 356 349 342 337 335 335 336 333 329 327 327 331 334 335 334 333 333 336 340 343 345 347 347 347 349 352 354 356 357 357 357 357 358 359 360 359 357 355 355 356 356 356 356 354 352 350 349 348 346
259 260 265 271 277 284 292 298 303 308 312 315 317 319 323 326 328 331 335 339 343 345 345 345 344 344 345 347 348 348 349 351 353 357 1 2 359 353 344 339 336 335 335 334 330 327 327 329 332 333 332 331 330 333 337 341 344 344 345 345 347 350 352 353 355 355 355 355 356 357 357 357 355 353 353 354 355 355 354 353 351 349 348 348 347
265 265 267 269 272 278 285 291 298 303 305 307 309 312 316 320 322 324 328 332 337 339 340 340 340 339 340 341 343 343 343 345 347 349 352 355 357 356 351 344 339 335 334 334 332 329 327 329 331 333 332 331 329 330 334 339 341 342 343 343 345 348 349 350 352 353 353 353 354 355 355 354 353 352 351 352 353 353 353 352 350 348 348 348 348
272 273 273 274 276 280 284 290 296 300 301 302 303 306 309 313 317 319 321 325 330 333 335 335 335 335 335 336 337 338 338 339 342 344 345 347 349 350 350 348 344 339 336 334 333 331 330 329 331 333 333 331 329 329 331 335 338 339 340 341 344 346 347 349 350 351 351 352 353 354 353 352 351 351 351 350 351 352 352 350 348 347 347 348 348
275 278 279 281 284 287 290 295 299 300 301 301 301 303 304 306 310 313 316 319 323 327 330 330 331 331 331 332 333 334 334 335 336 338 339 341 341 342 343 344 344 343 340 338 337 336 334 333 332 333 334 332 329 328 330 332 334 335 337 340 341 343 346 348 348 349 350 351 352 352 352 351 350 349 349 348 349 350 350 348 347 347 347 347 349
270 275 280 285 289 293 295 297 300 301 301 300 300 300 301 303 305 309 311 313 316 320 323 325 326 327 327 328 329 330 330 331 332 333 333 335 335 336 336 338 339 340 340 340 339 337 335 334 333 333 335 334 331 329 330 331 331 331 334 338 339 341 346 347 346 347 349 350 351 351 351 349 348 348 348 347 347 349 349 347 346 346 346 347 349
268 272 277 284 289 292 296 297 299 300 299 299 298 297 300 302 303 305 307 309 311 314 317 319 320 322 323 324 324 325 326 327 328 329 329 330 331 331 332 334 335 336 336 337 336 335 333 331 330 332 335 336 334 331 330 329 328 329 332 336 337 340 345 346 344 345 347 349 350 350 349 348 347 347 346 346 347 348 348 345 345 346 346 347 349
269 273 277 281 284 287 291 293 295 297 297 295 295 296 299 301 301 303 304 305 307 309 311 314 315 317 318 319 320 321 321 323 324 324 325 326 327 328 329 330 331 331 332 332 333 332 331 329 329 329 332 334 334 333 330 326 325 326 331 334 336 340 344 344 344 344 346 348 349 349 348 347 346 346 345 345 346 347 346 344 344 346 346 347 349
268 273 277 280 282 284 286 289 291 292 292 293 294 295 298 299 300 300 302 303 304 305 307 309 311 313 314 315 316 317 317 318 319 320 321 321 323 324 325 326 326 326 327 328 329 329 329 328 328 328 329 330 331 332 329 325 323 325 331 334 337 340 343 343 344 344 345 347 349 348 348 346 346 345 344 345 346 346 344 342 344 346 346 347 349
267 271 275 279 282 284 285 287 288 289 290 291 292 294 295 297 298 299 301 302 302 303 304 306 308 309 310 311 312 314 315 315 316 317 317 318 319 319 320 322 322 322 322 324 325 327 327 328 327 327 326 326 328 329 327 324 323 327 332 335 337 339 341 343 343 343 345 347 348 348 347 345 345 344 343 344 345 344 343 342 344 346 346 347 349
267 270 273 276 280 283 285 286 287 288 289 290 290 291 293 295 297 299 300 300 301 302 302 303 305 306 307 308 309 311 312 312 313 314 315 315 316 316 317 318 319 319 319 320 322 324 325 326 326 325 325 325 326 327 326 324 325 329 333 336 337 338 339 341 343 343 345 347 348 348 346 345 344 344 343 343 344 343 341 342 344 345 345 346 349
266 270 273 275 279 282 285 287 287 287 287 288 289 290 292 294 295 297 298 299 299 300 300 301 303 304 305 306 307 308 309 310 310 311 312 313 313 313 314 315 315 316 316 318 319 321 323 323 323 324 323 324 326 325 323 324 326 330 335 338 337 336 337 339 341 343 345 348 349 347 345 344 344 344 342 343 343 341 340 341 344 345 345 346 348
266 270 273 277 280 282 285 287 287 286 286 286 287 289 290 293 294 295 296 297 298 299 300 300 301 302 302 303 304 305 306 307 308 309 310 310 310 310 311 311 312 313 314 315 316 318 320 320 321 322 322 323 324 323 320 321 325 330 335 337 335 334 335 338 340 342 344 348 349 347 344 343 344 344 342 342 342 340 339 341 343 344 345 345 348
269 272 275 278 280 283 285 286 286 285 285 285 286 287 289 291 292 293 294 295 296 297 298 299 299 300 300 302 303 303 304 305 306 307 308 308 308 308 308 309 309 310 311 312 314 315 316 317 319 319 320 321 322 319 317 318 322 329 334 334 333 333 334 337 340 342 344 346 348 347 344 342 343 343 342 341 341 339 339 341 343 344 345 345 347
271 273 276 278 279 281 282 283 283 283 283 284 285 286 288 290 291 292 293 294 295 296 297 297 298 298 299 300 301 302 303 304 305 306 306 306 306 306 306 307 307 308 309 310 311 312 313 315 316 317 318 319 318 316 314 316 319 325 330 331 331 331 333 336 340 342 342 345 347 345 342 341 341 342 341 341 340 339 338 341 343 344 344 345 346
270 272 275 276 277 278 280 280 281 281 282 283 284 285 287 289 290 291 292 293 294 295 295 296 296 297 298 299 300 301 302 303 304 304 304 304 304 304 304 304 305 306 307 308 309 310 311 313 314 314 316 316 315 313 312 313 316 320 326 329 330 330 331 335 339 342 341 343 345 343 339 339 339 340 340 340 339 338 339 341 343 343 344 344 346
270 273 274 275 276 277 278 278 279 281 282 283 284 285 287 288 289 290 291 292 293 294 294 294 294 295 296 297 299 299 300 301 302 302 302 302 302 302 302 302 302 303 305 306 307 308 310 311 311 312 314 313 310 310 310 310 313 317 324 328 328 328 330 333 338 341 340 340 342 341 337 336 337 338 338 338 338 338 339 341 342 343 343 343 345
272 273 273 274 276 277 277 278 280 281 282 283 284 285 287 288 289 290 291 292 292 292 293 293 293 294 295 296 296 297 298 298 299 300 300 300 300 299 299 299 300 302 304 305 305 307 309 309 309 311 311 308 306 307 307 308 310 314 321 326 326 326 328 332 337 340 340 339 340 339 335 335 336 336 337 337 337 337 339 341 342 342 342 342 344
272 273 274 275 276 277 278 279 280 281 282 283 284 286 287 288 289 290 291 291 291 291 292 292 293 293 293 294 294 294 295 296 297 298 298 298 298 298 299 299 300 303 305 305 305 306 307 307 308 311 309 305 304 305 306 307 308 312 319 324 325 324 327 331 336 339 339 338 338 337 334 333 334 335 335 335 335 336 338 340 341 341 341 342 344
271 273 274 275 276 277 279 280 281 282 283 284 285 286 287 287 288 289 289 289 290 290 290 291 291 291 291 292 292 293 293 294 295 296 296 297 297 298 299 300 302 304 305 306 305 306 307 308 309 309 306 302 302 303 304 304 306 311 318 323 324 324 327 331 334 338 338 335 335 335 333 332 333 334 334 334 334 335 337 339 340 340 340 341 343
271 273 274 275 277 278 279 280 281 282 283 284 284 285 285 286 287 287 288 288 289 289 289 289 290 290 291 291 292 292 293 294 294 294 296 297 298 299 301 302 303 305 306 306 306 307 308 309 307 305 303 301 300 301 302 303 305 311 317 321 323 324 327 331 333 337 337 333 331 333 332 331 331 332 333 333 333 335 336 338 339 339 339 340 342
272 273 274 276 277 278 279 280 281 282 283 283 283 284 285 286 286 287 287 288 288 289 289 289 290 290 291 291 292 292 292 293 293 294 296 298 299 301 303 304 306 306 305 306 308 309 308 307 304 302 300 299 299 299 300 301 305 312 318 321 323 324 326 330 332 335 335 331 329 330 331 331 331 331 331 332 332 334 335 336 338 338 338 339 341
272 273 274 275 276 277 278 279 280 282 282 283 284 285 285 286 286 286 287 287 288 289 289 290 290 291 292 292 292 292 293 293 294 295 298 300 301 302 305 307 306 303 305 311 313 311 307 304 302 301 300 300 299 298 299 301 306 313 318 320 322 323 326 329 330 332 332 329 327 329 329 329 329 329 329 330 331 332 334 335 336 337 338 339 341
272 273 274 275 276 277 278 279 280 281 282 283 284 285 286 287 287 287 287 287 287 288 289 291 292 292 293 293 293 293 294 295 297 297 299 302 302 304 306 306 301 300 310 320 316 312 310 305 301 300 299 300 300 298 298 301 307 313 317 319 321 323 326 327 328 330 330 327 327 328 328 327 327 328 327 328 330 331 332 334 335 336 337 338 340
273 274 275 276 278 279 279 280 280 280 281 282 283 284 286 287 288 289 289 288 288 288 289 292 293 293 293 293 294 294 295 297 298 298 299 302 303 304 305 300 293 297 311 313 308 308 308 304 300 298 297 299 299 297 299 303 308 313 316 318 321 323 324 326 327 327 327 325 325 327 327 326 326 326 326 327 328 329 330 332 334 335 336 337 340
Height
10989 10989 10988 10987 10987 10986 10984 10983 10984 10983 10983 10984 10984 10982 10979 10977 10975 10973 10971 10969 10967 10966 10965 10963 10962 10961 10960 10959 10958 10957 10956 10954 10953 10951 10950 10949 10947 10946 10944 10943 10942 10941 10939 10938 10937 10936 10936 10935 10935 10934 10933 10932 10932 10931 10930 10930 10929 10929 10928 10927 10926 10924 10923 10923 10923 10923 10924 10924 10924 10924 10924 10924 10923 10923 10923 10923 10923 10923 10923 10923 10923 10922 10922 10922 10922
10991 10990 10990 10989 10989 10988 10986 10987 10987 10987 10986 10986 10985 10983 10981 10979 10976 10975 10973 10971 10969 10968 10967 10966 10965 10964 10962 10961 10960 10959 10957 10956 10955 10953 10952 10950 10949 10948 10947 10945 10944 10942 10940 10939 10938 10937 10936 10936 10936 10935 10934 10933 10933 10932 10931 10931 10930 10929 10928 10927 10926 10925 10923 10923 10923 10923 10923 10923 10923 10923 10923 10923 10923 10922 10922 10922 10922 10922 10921 10922 10921 10921 10921 10921 10921
10992 10992 10992 10991 10990 10989 10988 10989 10990 10989 10988 10988 10987 10985 10982 10980 10978 10976 10975 10973 10971 10970 10969 10968 10967 10966 10965 10963 10962 10961 10959 10958 10957 10955 10954 10952 10951 10950 10949 10947 10945 10944 10942 10940 10939 10938 10937 10937 10936 10935 10934 10934 10933 10932 10932 10931 10931 10930 10928 10927 10926 10925 10924 10923 10923 10923 10923 10923 10923 10923 10923 10923 10922 10922 10921 10921 10921 10921 10920 10920 10920 10920 10920 10920 10920
10994 10993 10993 10992 10992 10991 10990 10991 10991 10991 10990 10990 10988 10986 10984 10982 10980 10978 10977 10975 10974 10972 10972 10971 10970 10968 10967 10965 10964 10963 10961 10960 10959 10957 10956 10955 10953 10951 10950 10949 10947 10945 10944 10942 10941 10940 10939 10938 10937 10936 10935 10934 10934 10933 10932 10931 10931 10930 10928 10927 10926 10925 10925 10924 10923 10923 10923 10923 10923 10923 10922 10922 10922 10921 10920 10920 10920 10919 10919 10919 10919 10919 10919 10919 10919
10995 10995 10995 10994 10994 10993 10992 10992 10992 10992 10992 10991 10990 10988 10987 10985 10982 10981 10979 10977 10976 10975 10974 10973 10972 10971 10969 10968 10966 10965 10964 10962 10961 10959 10958 10957 10955 10953 10952 10951 10949 10947 10945 10944 10943 10942 10941 10940 10938 10936 10935 10935 10934 10934 10933 10932 10931 10930 10929 10928 10926 10925 10925 10924 10923 10923 10922 10922 10922 10922 10921 10921 10921 10920 10920 10919 10919 10918 10918 10918 10918 10918 10918 10918 10917
10996 10996 10996 10995 10995 10995 10994 10994 10994 10994 10993 10992 10991 10990 10989 10987 10985 10983 10981 10980 10978 10977 10976 10975 10974 10973 10971 10970 10968 10967 10966 10964 10963 10962 10960 10959 10956 10955 10954 10953 10951 10949 10947 10946 10945 10944 10943 10941 10939 10938 10937 10936 10935 10934 10933 10933 10931 10930 10929 10928 10927 10926 10925 10924 10924 10923 10923 10922 10922 10921 10920 10919 10919 10919 10919 10919 10918 10918 10917 10917 10917 10917 10916 10916 10916
10997 10996 10996 10996 10997 10996 10996 10997 10997 10996 10995 10994 10992 10991 10990 10988 10987 10985 10984 10982 10981 10979 10978 10977 10976 10975 10974 10972 10971 10969 10968 10967 10965 10964 10963 10961 10959 10958 10956 10955 10953 10951 10949 10948 10947 10946 10945 10943 10941 10940 10939 10937 10936 10935 10933 10932 10931 10929 10928 10927 10926 10926 10925 10924 10923 10923 10922 10921 10921 10920 10919 10919 10918 10917 10917 10917 10917 10917 10916 10916 10916 10915 10915 10915 10914
10997 10997 10997 10997 10998 10996 10997 10999 10998 10997 10997 10996 10994 10993 10991 10990 10989 10987 10986 10985 10984 10982 10981 10979 10978 10978 10976 10975 10974 10972 10971 10969 10968 10967 10965 10964 10962 10961 10959 10957 10956 10953 10951 10950 10949 10948 10947 10946 10944 10943 10941 10940 10938 10936 10935 10933 10932 10930 10929 10928 10927 10926 10925 10924 10922 10921 10920 10920 10919 10919 10919 10918 10917 10917 10916 10915 10915 10915 10915 10915 10914 10914 10913 10913 10913
10998 10998 10998 10998 10998 10997 10998 11000 11000 10999 10999 10998 10997 10995 10993 10992 10991 10989 10988 10987 10986 10985 10983 10982 10981 10980 10979 10978 10976 10975 10974 10972 10971 10970 10968 10967 10965 10964 10962 10960 10958 10956 10954 10953 10952 10950 10949 10948 10947 10946 10944 10943 10941 10939 10938 10936 10934 10932 10930 10929 10927 10926 10925 10923 10922 10921 10920 10918 10918 10917 10916 10916 10916 10916 10915 10914 10913 10913 10912 10912 10912 10912 10911 10911 10911
10999 10999 10999 10999 10999 10999 10999 11000 11001 11001 11000 10999 10999 10997 10995 10994 10992 10991 10990 10989 10988 10987 10985 10985 10984 10983 10981 10980 10979 10978 10977 10975 10974 10973 10971 10970 10968 10967 10965 10963 10961 10959 10958 10956 10955 10953 10952 10950 10949 10948 10947 10945 10944 10942 10941 10939 10937 10935 10933 10931 10929 10927 10925 10924 10922 10920 10919 10918 10917 10916 10915 10915 10915 10914 10913 10913 10912 10911 10911 10910 10909 10909 10909 10908 10908
11000 11000 11000 11000 11000 11000 11000 11001 11002 11002 11002 11001 11000 10999 10998 10996 10994 10993 10992 10991 10989 10989 10988 10987 10986 10985 10984 10983 10982 10981 10979 10978 10977 10976 10974 10973 10971 10970 10968 10966 10964 10963 10961 10959 10958 10956 10955 10953 10951 10950 10949 10947 10946 10944 10943 10941 10940 10938 10936 10934 10932 10930 10927 10925 10923 10920 10919 10917 10916 10915 10915 10914 10914 10912 10912 10911 10911 10910 10910 10909 10908 10907 10906 10906 10905
11000 11001 11001 11001 11001 11001 11003 11004 11003 11003 11004 11003 11002 11001 11000 10998 10996 10995 10993 10992 10991 10990 10990 10989 10988 10987 10986 10985 10984 10983 10982 10981 10979 10978 10976 10975 10973 10972 10970 10969 10967 10965 10964 10962 10960 10959 10957 10956 10954 10953 10951 10950 10948 10946 10945 10943 10942 10940 10938 10936 10934 10932 10929 10927 10924 10922 10920 10918 10916 10915 10914 10913 10912 10911 10910 10910 10909 10908 10908 10907 10906 10905 10904 10903 10903
11001 11001 11002 11002 11002 11003 11004 11005 11005 11004 11004 11005 11004 11003 11002 11000 10997 10996 10995 10994 10993 10992 10992 10991 10990 10988 10987 10986 10986 10985 10984 10983 10981 10980 10978 10976 10974 10973 10971 10970 10968 10966 10965 10963 10962 10960 10959 10957 10956 10955 10953 10952 10950 10948 10947 10945 10943 10941 10940 10937 10935 10933 10930 10928 10925 10923 10922 10920 10918 10916 10914 10913 10911 10910 10909 10908 10907 10906 10906 10905 10904 10903 10902 10901 10901
11002 11002 11003 11003 11003 11004 11005 11006 11006 11005 11006 11007 11006 11005 11003 11001 10999 10998 10996 10995 10994 10993 10993 10992 10991 10990 10989 10988 10987 10986 10986 10985 10983 10982 10980 10978 10976 10974 10972 10971 10969 10967 10966 10964 10963 10962 10960 10959 10957 10956 10955 10953 10952 10950 10948 10946 10944 10942 10940 10938 10936 10933 10931 10928 10926 10924 10923 10921 10919 10917 10915 10913 10912 10910 10908 10907 10905 10904 10904 10903 10901 10901 10900 10899 10898
11003 11003 11004 11004 11004 11005 11006 11007 11008 11008 11008 11008 11007 11006 11004 11002 11001 10999 10998 10997 10995 10995 10994 10993 10992 10991 10991 10990 10989 10988 10987 10986 10984 10983 10982 10980 10978 10976 10974 10972 10970 10969 10967 10965 10964 10963 10961 10960 10958 10957 10955 10954 10952 10950 10949 10946 10944 10942 10940 10938 10936 10934 10931 10929 10927 10925 10923 10921 10919 10917 10915 10914 10912 10910 10908 10906 10905 10903 10901 10900 10898 10897 10896 10895 10894
11004 11004 11005 11005 11005 11006 11007 11008 11009 11009 11008 11009 11009 11007 11005 11003 11002 11001 10999 10998 10997 10996 10995 10994 10993 10992 10991 10990 10989 10988 10987 10986 10984 10983 10982 10981 10979 10977 10976 10974 10972 10970 10968 10966 10965 10964 10962 10960 10959 10957 10955 10954 10952 10950 10948 10946 10944 10942 10940 10938 10936 10934 10932 10929 10927 10925 10923 10921 10918 10917 10915 10913 10912 10910 10908 10906 10904 10902 10899 10897 10895 10894 10892 10891 10890
11005 11005 11005 11006 11006 11006 11007 11008 11009 11009 11009 11010 11009 11007 11006 11005 11003 11002 11001 10999 10998 10997 10995 10994 10993 10992 10991 10990 10989 10988 10986 10985 10984 10982 10981 10980 10979 10978 10976 10975 10973 10971 10970 10968 10966 10965 10963 10961 10959 10957 10955 10953 10952 10950 10948 10946 10944 10942 10940 10938 10935 10933 10931 10929 10927 10924 10922 10919 10917 10915 10913 10912 10910 10908 10907 10905 10903 10900 10898 10896 10894 10891 10889 10888 10886
11005 11006 11006 11006 11007 11007 11007 11008 11008 11008 11009 11009 11008 11007 11006 11006 11005 11004 11002 11000 10999 10997 10996 10995 10993 10992 10991 10990 10988 10987 10986 10984 10983 10981 10980 10979 10978 10978 10976 10975 10974 10973 10971 10969 10967 10966 10964 10962 10960 10958 10955 10953 10951 10949 10947 10945 10943 10941 10939 10937 10935 10932 10930 10928 10926 10923 10921 10918 10915 10913 10911 10909 10908 10906 10904 10903 10901 10898 10896 10894 10892 10889 10887 10885 10883
11006 11006 11007 11007 11007 11007 11007 11007 11008 11008 11008 11008 11007 11007 11006 11006 11006 11005 11003 11002 11000 10998 10997 10995 10994 10992 10991 10989 10988 10986 10985 10983 10982 10980 10979 10978 10977 10977 10976 10975 10974 10973 10971 10970 10968 10967 10965 10962 10960 10958 10956 10954 10951 10949 10947 10945 10943 10941 10939 10936 10934 10932 10930 10927 10925 10923 10920 10917 10914 10912 10909 10907 10905 10903 10902 10900 10897 10895 10893 10891 10889 10887 10885 10882 10880
11007 11007 11007 11007 11007 11007 11007 11007 11007 11007 11007 11007 11007 11006 11006 11006 11006 11005 11004 11002 11001 10999 10997 10995 10994 10993 10991 10989 10988 10987 10985 10983 10981 10980 10978 10977 10976 10976 10975 10974 10974 10972 10971 10969 10968 10967 10965 10962 10960 10958 10956 10954 10951 10949 10947 10945 10942 10940 10938 10936 10934 10931 10929 10926 10924 10922 10919 10916 10914 10911 10908 10906 10904 10901 10899 10896 10892 10890 10887 10886 10884 10882 10880 10879 10876
11007 11007 11007 11007 11007 11007 11007 11007 11007 11007 11007 11006 11006 11006 11006 11006 11005 11005 11004 11003 11001 10999 10997 10996 10994 10993 10991 10990 10988 10987 10985 10983 10981 10979 10978 10976 10975 10975 10974 10974 10973 10971 10970 10968 10967 10966 10964 10962 10960 10958 10956 10954 10951 10949 10946 10944 10942 10940 10938 10935 10933 10930 10927 10925 10922 10920 10917 10915 10912 10910 10907 10904 10902 10899 10896 10892 10889 10886 10883 10881 10878 10876 10874 10873 10871
11007 11007 11007 11007 11007 11007 11007 11007 11007 11007 11007 11006 11006 11005 11005 11005 11005 11004 11003 11002 11001 10999 10998 10996 10994 10993 10991 10990 10988 10986 10985 10983 10981 10979 10977 10976 10975 10974 10974 10973 10972 10970 10969 10967 10966 10965 10963 10961 10960 10958 10955 10953 10951 10948 10946 10944 10941 10939 10937 10935 10932 10929 10926 10923 10920 10918 10915 10913 10910 10908 10905 10903 10900 10897 10894 10891 10888 10884 10881 10878 10874 10871 10869 10867 10865
11007 11007 11007 11007 11007 11007 11007 11007 11007 11007 11006 11006 11005 11005 11005 11005 11005 11004 11003 11002 11000 10999 10997 10996 10994 10993 10992 10990 10988 10986 10984 10983 10981 10979 10977 10976 10974 10973 10973 10972 10971 10969 10968 10967 10966 10964 10963 10961 10959 10957 10955 10952 10950 10948 10945 10943 10941 10938 10936 10933 10931 10928 10925 10922 10919 10916 10913 10911 10908 10906 10903 10901 10898 10895 10892 10889 10886 10883 10879 10875 10871 10868 10865 10862 10859
11007 11007 11007 11007 11007 11007 11007 11007 11007 11007 11006 11006 11005 11005 11004 11004 11004 11003 11002 11001 11000 10998 10997 10996 10995 10993 10992 10990 10988 10986 10985 10983 10981 10979 10977 10975 10974 10973 10972 10971 10970 10968 10967 10965 10964 10963 10961 10960 10958 10956 10954 10951 10949 10947 10945 10942 10940 10937 10935 10932 10929 10927 10924 10921 10918 10915 10912 10909 10907 10904 10901 10898 10895 10892 10889 10886 10883 10879 10876 10872 10868 10864 10861 10857 10854
11007 11007 11006 11007 11007 11007 11007 11007 11007 11007 11006 11006 11005 11004 11004 11003 11003 11002 11001 11000 10999 10998 10997 10996 10995 10993 10992 10990 10988 10986 10984 10983 10981 10979 10977 10975 10974 10972 10971 10970 10969 10967 10966 10964 10963 10961 10959 10957 10955 10954 10952 10950 10947 10945 10943 10941 10938 10936 10933 10930 10928 10925 10923 10919 10916 10913 10910 10907 10904 10901 10898 10895 10892 10889 10886 10883 10879 10875 10871 10867 10862 10858 10855 10852 10848
11006 11006 11006 11006 11006 11006 11007 11007 11006 11006 11006 11005 11004 11004 11003 11003 11002 11001 11001 11000 10998 10997 10996 10995 10994 10992 10991 10989 10988 10986 10984 10982 10980 10978 10976 10975 10973 10972 10970 10969 10968 10966 10965 10964 10962 10960 10958 10956 10954 10952 10950 10948 10946 10943 10941 10939 10936 10934 10931 10928 10926 10923 10920 10917 10914 10911 10908 10905 10901 10898 10895 10892 10889 10885 10882 10878 10874 10870 10865 10861 10857 10853 10849 10845 10841
11006 11006 11006 11006 11006 11006 11006 11006 11006 11006 11005 11004 11004 11003 11002 11002 11001 11000 11000 10999 10997 10996 10995 10994 10993 10992 10990 10989 10987 10985 10983 10982 10980 10978 10976 10974 10972 10971 10969 10968 10967 10965 10964 10963 10961 10958 10956 10954 10952 10950 10948 10946 10944 10942 10939 10937 10934 10932 10929 10926 10923 10920 10917 10914 10911 10908 10905 10901 10898 10894 10891 10888 10884 10881 10877 10873 10869 10864 10860 10856 10852 10848 10844 10840 10835
11005 11005 11005 11005 11005 11004 11004 11005 11005 11004 11004 11003 11003 11002 11002 11001 11000 10999 10998 10997 10996 10995 10994 10993 10992 10990 10989 10987 10986 10984 10983 10981 10979 10977 10976 10974 10972 10970 10968 10967 10965 10964 10962 10960 10959 10957 10954 10952 10950 10948 10946 10944 10942 10939 10937 10934 10932 10930 10927 10924 10921 10917 10914 10911 10908 10905 10902 10898 10895 10891 10887 10884 10881 10877 10873 10869 10865 10860 10856 10852 10848 10844 10839 10834 10828
11003 11003 11003 11003 11003 11003 11003 11003 11003 11003 11003 11002 11002 11001 11001 11000 10999 10998 10996 10996 10995 10994 10992 10991 10990 10989 10987 10986 10984 10983 10981 10980 10978 10976 10974 10973 10971 10969 10967 10965 10964 10962 10960 10958 10956 10955 10952 10950 10948 10946 10944 10942 10939 10936 10934 10932 10930 10927 10925 10922 10919 10916 10913 10909 10906 10902 10899 10896 10892 10888 10885 10881 10877 10873 10869 10865 10860 10856 10852 10847 10844 10840 10834 10828 10821
11001 11001 11001 11001 11002 11002 11001 11001 11001 11001 11001 11000 11000 10999 10999 10998 10997 10996 10995 10994 10993 10992 10991 10989 10988 10987 10985 10984 10982 10981 10979 10978 10976 10974 10973 10971 10969 10968 10966 10964 10962 10960 10958 10956 10954 10952 10951 10949 10946 10944 10942 10939 10936 10934 10931 10928 10927 10925 10922 10919 10917 10915 10911 10907 10903 10900 10897 10893 10889 10885 10881 10878 10874 10869 10865 10860 10856 10851 10846 10842 10839 10834 10827 10821 10813
10999 10999 10999 10999 10999 10999 10999 10999 10999 10999 10999 10998 10998 10997 10997 10996 10996 10995 10993 10992 10991 10990 10989 10988 10986 10985 10983 10982 10980 10979 10977 10976 10974 10973 10971 10969 10968 10966 10964 10963 10961 10959 10956 10954 10951 10950 10948 10947 10945 10943 10940 10936 10933 10931 10928 10926 10924 10921 10919 10917 10915 10912 10909 10905 10901 10898 10894 10889 10885 10882 10878 10874 10870 10865 10861 10856 10852 10846 10841 10837 10832 10826 10820 10813 10805
10997 10997 10997 10997 10997 10997 10997 10997 10997 10996 10996 10996 10995 10995 10994 10994 10994 10993 10992 10990 10989 10988 10987 10986 10984 10983 10981 10980 10978 10977 10975 10974 10972 10970 10969 10967 10966 10964 10963 10961 10959 10957 10955 10952 10950 10947 10945 10944 10942 10940 10937 10933 10930 10928 10925 10923 10921 10918 10916 10914 10912 10910 10907 10903 10898 10894 10891 10886 10881 10878 10875 10870 10866 10861 10857 10853 10847 10841 10835 10831 10825 10819 10812 10805 10797
10994 10995 10995 10995 10995 10995 10994 10994 10994 10994 10994 10993 10993 10992 10992 10992 10991 10991 10990 10988 10987 10986 10985 10984 10982 10980 10979 10977 10976 10974 10972 10971 10969 10968 10966 10964 10963 10961 10960 10958 10957 10955 10953 10950 10947 10945 10942 10940 10939 10936 10933 10930 10927 10925 10922 10919 10917 10915 10913 10911 10909 10907 10904 10900 10895 10891 10888 10883 10879 10875 10871 10867 10862 10857 10853 10848 10841 10835 10830 10825 10820 10813 10805 10797 10789
10991 10992 10993 10993 10993 10992 10992 10991 10991 10991 10991 10990 10990 10989 10989 10989 10988 10988 10987 10986 10985 10983 10982 10981 10980 10978 10977 10975 10973 10972 10970 10968 10966 10965 10963 10961 10959 10958 10956 10955 10954 10952 10950 10948 10945 10942 10939 10937 10935 10932 10930 10926 10924 10922 10919 10916 10914 10912 10910 10908 10905 10903 10899 10896 10892 10887 10884 10880 10875 10871 10867 10862 10857 10853 10848 10842 10836 10830 10825 10820 10813 10806 10798 10790 10781
10988 10989 10990 10990 10990 10990 10990 10989 10988 10988 10988 10987 10987 10986 10986 10986 10985 10985 10984 10983 10982 10981 10979 10978 10977 10976 10974 10972 10971 10969 10967 10965 10963 10962 10960 10958 10956 10954 10953 10951 10950 10948 10947 10945 10943 10940 10937 10933 10931 10928 10926 10923 10921 10919 10917 10914 10911 10909 10907 10904 10901 10898 10895 10892 10887 10883 10879 10875 10871 10866 10861 10857 10852 10847 10842 10836 10830 10825 10820 10814 10806 10798 10790 10782 10773
10985 10986 10986 10987 10987 10987 10987 10987 10986 10985 10984 10984 10983 10983 10983 10983 10982 10982 10981 10980 10979 10978 10976 10975 10974 10973 10971 10969 10967 10966 10964 10962 10960 10959 10957 10955 10953 10951 10950 10948 10946 10944 10943 10941 10940 10937 10934 10931 10928 10925 10922 10920 10917 10915 10914 10911 10908 10906 10904 10901 10897 10894 10891 10888 10883 10879 10875 10871 10866 10861 10857 10853 10849 10844 10838 10833 10827 10821 10816 10809 10801 10792 10785 10777 10768
10982 10983 10983 10984 10984 10984 10984 10984 10983 10982 10981 10981 10980 10979 10979 10979 10979 10978 10977 10976 10976 10975 10973 10972 10970 10969 10967 10966 10964 10962 10961 10959 10957 10955 10953 10952 10950 10948 10946 10945 10943 10940 10938 10936 10935 10933 10931 10928 10925 10923 10920 10916 10913 10910 10908 10907 10905 10903 10900 10897 10893 10890 10887 10884 10879 10875 10871 10867 10862 10857 10853 10849 10845 10839 10833 10828 10822 10816 10811 10804 10796 10787 10780 10773 10763
10979 10980 10980 10981 10981 10982 10982 10981 10980 10979 10978 10977 10976 10975 10975 10975 10975 10975 10974 10972 10972 10971 10969 10968 10966 10965 10963 10962 10960 10958 10957 10955 10953 10952 10950 10948 10946 10944 10942 10941 10939 10937 10934 10932 10930 10928 10927 10925 10922 10920 10917 10914 10910 10907 10904 10902 10900 10899 10897 10894 10890 10886 10883 10879 10875 10871 10867 10863 10859 10854 10849 10844 10839 10833 10826 10820 10816 10810 10805 10799 10791 10783 10774 10766 10758
10977 10977 10978 10978 10978 10978 10978 10978 10977 10976 10975 10974 10972 10971 10971 10971 10971 10971 10970 10968 10968 10967 10966 10964 10962 10960 10959 10958 10956 10954 10952 10951 10949 10948 10946 10944 10942 10940 10939 10937 10935 10933 10930 10928 10926 10924 10922 10920 10918 10915 10913 10910 10907 10904 10901 10899 10897 10895 10893 10890 10887 10882 10878 10875 10870 10866 10862 10859 10856 10852 10846 10841 10836 10830 10823 10817 10811 10805 10799 10793 10785 10777 10768 10760 10752
10974 10974 10975 10975 10975 10975 10975 10975 10974 10972 10971 10970 10969 10968 10968 10967 10967 10966 10966 10964 10963 10962 10961 10960 10958 10956 10954 10953 10951 10949 10948 10947 10946 10944 10942 10940 10938 10936 10934 10932 10930 10928 10926 10924 10922 10920 10917 10915 10913 10911 10908 10906 10904 10901 10898 10895 10893 10892 10889 10886 10883 10879 10874 10870 10866 10861 10856 10853 10850 10846 10842 10836 10832 10828 10822 10815 10809 10802 10795 10788 10779 10771 10762 10753 10745
10970 10971 10971 10972 10971 10971 10971 10970 10969 10968 10967 10966 10965 10964 10964 10964 10963 10962 10961 10960 10959 10958 10957 10955 10953 10951 10949 10948 10946 10944 10942 10941 10941 10940 10937 10935 10933 10931 10929 10927 10925 10923 10921 10919 10917 10915 10913 10910 10908 10906 10903 10901 10899 10897 10894 10892 10889 10887 10885 10882 10879 10875 10871 10867 10862 10856 10851 10847 10844 10839 10835 10830 10826 10822 10817 10812 10806 10800 10792 10784 10776 10766 10758 10749 10740
10966 10967 10967 10967 10967 10967 10967 10966 10965 10964 10963 10962 10961 10960 10960 10959 10959 10958 10956 10955 10954 10953 10951 10950 10948 10945 10943 10942 10941 10939 10937 10935 10934 10934 10932 10930 10927 10925 10923 10921 10920 10918 10916 10914 10912 10910 10908 10906 10903 10901 10898 10896 10894 10893 10891 10888 10885 10883 10881 10878 10875 10872 10868 10864 10859 10852 10845 10841 10839 10834 10829 10824 10820 10816 10811 10805 10800 10794 10786 10779 10771 10763 10755 10747 10739
10962 10963 10963 10962 10962 10963 10963 10962 10961 10960 10959 10958 10957 10956 10955 10955 10954 10953 10952 10950 10949 10947 10945 10944 10942 10940 10938 10936 10934 10933 10931 10928 10927 10927 10926 10924 10921 10919 10917 10914 10913 10913 10911 10908 10906 10904 10902 10900 10898 10895 10894 10891 10889 10888 10887 10884 10881 10878 10876 10873 10870 10867 10863 10859 10855 10849 10842 10836 10834 10831 10825 10820 10815 10811 10805 10799 10793 10787 10779 10771 10765 10758 10750 10743 10735
10958 10959 10958 10958 10958 10958 10958 10957 10957 10955 10954 10953 10952 10951 10951 10950 10950 10948 10947 10945 10943 10941 10939 10937 10936 10934 10932 10930 10928 10926 10924 10922 10920 10920 10919 10917 10915 10913 10911 10907 10905 10906 10906 10902 10899 10898 10897 10894 10892 10890 10888 10886 10884 10883 10882 10880 10878 10874 10872 10869 10865 10861 10858 10854 10850 10845 10839 10832 10829 10826 10821 10816 10811 10806 10801 10794 10787 10781 10773 10765 10759 10753 10745 10738 10730
10953 10954 10954 10954 10954 10953 10953 10952 10952 10950 10948 10947 10946 10946 10945 10945 10944 10943 10941 10938 10936 10934 10932 10930 10929 10927 10925 10923 10921 10919 10917 10915 10913 10913 10912 10910 10908 10906 10904 10901 10898 10898 10898 10896 10893 10891 10890 10888 10886 10885 10883 10881 10879 10878 10876 10875 10873 10870 10868 10865 10861 10857 10853 10849 10844 10841 10835 10828 10824 10822 10817 10811 10807 10802 10797 10791 10784 10778 10770 10762 10755 10749 10742 10734 10726
10948 10948 10948 10948 10948 10948 10947 10947 10945 10944 10943 10942 10941 10940 10939 10939 10938 10937 10935 10932 10930 10928 10926 10924 10922 10920 10918 10916 10914 10912 10911 10908 10906 10905 10905 10903 10901 10900 10898 10895 10892 10890 10890 10889 10886 10884 10884 10883 10881 10879 10877 10876 10874 10872 10871 10869 10867 10865 10863 10860 10856 10853 10849 10844 10839 10835 10830 10823 10820 10818 10814 10808 10802 10798 10794 10788 10781 10774 10768 10760 10753 10746 10739 10732 10725
10942 10942 10942 10943 10942 10942 10941 10940 10939 10937 10936 10935 10934 10933 10932 10932 10932 10932 10930 10926 10923 10920 10918 10917 10915 10913 10911 10909 10907 10905 10904 10902 10898 10897 10899 10897 10894 10893 10893 10890 10887 10885 10882 10881 10880 10878 10878 10877 10875 10874 10872 10870 10869 10867 10865 10863 10862 10860 10857 10854 10851 10848 10844 10840 10835 10831 10825 10818 10813 10813 10810 10804 10798 10794 10789 10784 10778 10770 10764 10758 10751 10744 10737 10730 10722
10936 10936 10937 10937 10937 10936 10935 10934 10933 10931 10929 10928 10926 10924 10924 10924 10925 10924 10923 10921 10917 10913 10911 10909 10908 10906 10904 10902 10900 10898 10897 10895 10891 10889 10892 10893 10888 10886 10887 10885 10882 10879 10876 10874 10873 10873 10872 10871 10870 10868 10867 10865 10864 10862 10860 10858 10856 10855 10852 10849 10846 10842 10839 10835 10830 10826 10823 10816 10809 10806 10803 10798 10792 10788 10783 10780 10774 10766 10760 10754 10747 10740 10733 10725 10717
10930 10931 10931 10931 10931 10930 10929 10928 10927 10925 10922 10920 10918 10917 10916 10916 10917 10917 10916 10915 10913 10908 10904 10903 10902 10900 10898 10895 10894 10891 10889 10889 10886 10882 10885 10888 10884 10880 10880 10880 10877 10874 10871 10869 10867 10867 10867 10866 10864 10863 10861 10860 10859 10857 10855 10854 10852 10850 10847 10844 10841 10837 10833 10829 10825 10821 10819 10814 10808 10803 10799 10792 10787 10782 10777 10773 10769 10763 10756 10750 10743 10737 10728 10720 10711
10924 10924 10925 10925 10925 10924 10923 10922 10921 10919 10917 10915 10912 10910 10909 10908 10908 10909 10909 10909 10908 10904 10900 10898 10896 10894 10892 10889 10887 10885 10883 10883 10881 10877 10877 10881 10880 10876 10874 10874 10872 10870 10868 10867 10863 10861 10862 10861 10859 10857 10856 10855 10854 10852 10850 10849 10847 10845 10842 10839 10836 10832 10828 10824 10820 10815 10812 10808 10804 10801 10798 10792 10785 10779 10773 10767 10762 10758 10753 10746 10739 10732 10724 10716 10707
10918 10918 10918 10918 10918 10917 10917 10916 10915 10913 10911 10910 10908 10905 10903 10901 10901 10901 10901 10902 10901 10899 10897 10895 10892 10889 10887 10884 10882 10880 10879 10880 10877 10871 10871 10874 10874 10872 10870 10868 10867 10866 10864 10864 10861 10857 10856 10856 10855 10852 10850 10849 10848 10847 10845 10844 10842 10839 10836 10833 10830 10826 10823 10820 10815 10810 10806 10802 10797 10795 10793 10789 10782 10776 10770 10763 10757 10752 10747 10742 10734 10726 10719 10710 10702